Regional Weather Roundup
Issued by NWS

Home | Current Version | Previous Version | Graphics & Text | Print | Product List | Glossary On
Versions: 1 2 3 4 5 6 7 8 9 10 11 12 13 14 15 16 17 18 19 20 21 22 23 24 25 26 27 28 29 30 31 32 33 34 35 36 37 38 39 40 41 42 43 44 45 46 47 48 49 50
000
ASUS43 KOAX 010502
RWRNE

WEATHER ROUNDUP FOR NEBRASKA
NATIONAL WEATHER SERVICE OMAHA NE
1200 AM CDT WED OCT 01 2014

NOTES: SATELLITE DATA IS BEING USED TO AUGMENT CLOUD COVER ABOVE
       12000 FEET.
       "FAIR" INDICATES FEW OR NO CLOUDS BELOW 12,000 FEET WITH NO
       SIGNIFICANT WEATHER AND/OR OBSTRUCTIONS TO VISIBILITY.

  * THESE STATIONS DO NOT REPORT WEATHER SUCH AS RAIN...SNOW OR FOG.

NEZ001>004-019>022-054>056-010600-
NEBRASKA PANHANDLE

CITY           SKY/WX    TMP DP  RH WIND       PRES   REMARKS
SCOTTSBLUFF    CLOUDY    59  44  57 W12       29.79S
ALLIANCE       CLOUDY    52  45  77 W10       29.77S
CHADRON        CLOUDY    55  48  77 W8        29.75S
KIMBALL        CLOUDY    55  41  57 W12       29.83S
SIDNEY         CLOUDY    59  42  53 W10       29.83S
$$

NEZ057>060-069>072-079>082-010600-
SOUTHWEST NEBRASKA

CITY           SKY/WX    TMP DP  RH WIND       PRES   REMARKS
NORTH PLATTE   CLOUDY    57  49  74 NW3       29.75R
IMPERIAL       CLOUDY    60  48  64 W3        29.77R
LEXINGTON      MOCLDY    56  54  93 CALM      29.74S
MCCOOK         CLOUDY    61  52  72 E3        29.75R
OGALLALA       CLOUDY    57  52  84 CALM      29.78R
$$

NEZ005>010-023>029-035>040-094-010600-
NORTH CENTRAL NEBRASKA

CITY           SKY/WX    TMP DP  RH WIND       PRES   REMARKS
VALENTINE      MOCLDY    53  46  77 SW5       29.71S
AINSWORTH      CLOUDY    59  46  61 S8        29.71S
BROKEN BOW     CLOUDY    55  51  86 CALM      29.73F
O`NEILL        PTCLDY    62  61  97 SE6       29.73S
ORD            PTCLDY    60  58  92 SE3       29.73R
THEDFORD       CLOUDY    60  49  66 CALM      29.75S
$$

NEZ041-046>049-061>064-073>077-083>087-010600-
SOUTH CENTRAL NEBRASKA

CITY           SKY/WX    TMP DP  RH WIND       PRES   REMARKS
GRAND ISLAND   CLOUDY    63  61  93 SE9       29.75S FOG
AURORA         CLOUDY    63  63 100 SE8       29.75S FOG
HASTINGS       CLOUDY    63  60  90 SE12      29.74F FOG
HEBRON         CLOUDY    65  62  90 NE7       29.74F
KEARNEY *      CLOUDY    63  61  94 SE9       29.75F VSB 3/4
YORK           CLOUDY    63  63 100 S13       29.76R
$$

NEZ011>018-030>034-042>045-010600-
NORTHEAST NEBRASKA

CITY           SKY/WX    TMP DP  RH WIND       PRES   REMARKS
NORFOLK        MOCLDY    60  59  96 SE6       29.76S
ALBION         CLOUDY    62  59  92 SE7       29.75F
BLAIR          RAIN      66  63  89 SE13      29.77F
COLUMBUS *     MOCLDY    61  57  88 SE6       29.77R
FREMONT        CLOUDY    65  63  93 SE6       29.77S FOG
TEKAMAH        CLOUDY    65  63  93 E5        29.77F
WAYNE          PTCLDY    60  59  97 CALM      29.77S FOG
$$

NEZ050>053-065>068-078-088>093-010600-
SOUTHEAST NEBRASKA

CITY           SKY/WX    TMP DP  RH WIND       PRES   REMARKS
LINCOLN        RAIN      64  62  93 E6        29.75F FOG
OMAHA EPPLEY   TSTM      66  63  90 SE21G30   29.76F FOG
BEATRICE       RAIN      64  63  96 CALM      29.75S
FALLS CITY     TSTM      66  65  96 CALM      29.76R FOG
NEBRASKA CITY  CLOUDY    64  64 100 E3        29.78R
PLATTSMOUTH    TSTM      65  63  93 NE5       29.78F
$$

NEZ044-045-051>053-067-010600-
OMAHA AREA

CITY           SKY/WX    TMP DP  RH WIND       PRES   REMARKS
OMAHA EPPLEY   TSTM      66  63  90 SE21G30   29.76F FOG
BLAIR          RAIN      66  63  89 SE13      29.77F
FREMONT        CLOUDY    65  63  93 SE6       29.77S FOG
MILLARD        CLOUDY    66  64  93 SE14      29.76R
OFFUTT AFB     TSTM      66  66 100 E12       29.78F
PLATTSMOUTH    TSTM      65  63  93 NE5       29.78F
WAHOO          DRIZZLE   65  62  90 SE8       29.76S
$$



USA.gov is the U.S. government's official web portal to all federal, state and local government web resources and services.